Regional Weather Roundup
Issued by NWS

Home | Current Version | Previous Version | Graphics & Text | Print | Product List | Glossary On
Versions: 1 2 3 4 5 6 7 8 9 10 11 12 13 14 15 16 17 18 19 20 21 22 23 24 25 26 27 28 29 30 31 32 33 34 35 36 37 38 39 40 41 42 43 44 45 46 47 48 49 50
000
ASUS43 KLMK 251502
RWRKY
KENTUCKY REGIONAL WEATHER ROUNDUP
NATIONAL WEATHER SERVICE LOUISVILLE KY
1000 AM EST SUN JAN 25 2015

NOTE "FAIR" INDICATES FEW OR NO CLOUDS BELOW 12,000 FEET
WITH NO SIGNIFICANT WEATHER AND/OR OBSTRUCTIONS TO VISIBILITY.

KYZ001>023-026-027-061>063-070>075-251600-
WESTERN AND SOUTH CENTRAL KENTUCKY

CITY           SKY/WX    TMP DP  RH WIND       PRES   REMARKS
PADUCAH        LGT RAIN  43  35  73 S6        29.66F
HENDERSON      CLOUDY    43  34  70 S8        29.67S
OWENSBORO      PTSUNNY   41  34  76 S9        29.69F
HOPKINSVILLE   CLOUDY    44  34  68 S10       29.70F
BOWLING GREEN  CLOUDY    42  33  70 S12       29.74F
GLASGOW        NOT AVBL
$$

KYZ024-025-028>034-038-045-046-053-251600-
NORTH CENTRAL KENTUCKY

CITY           SKY/WX    TMP DP  RH WIND       PRES   REMARKS
LOUISVILLE/SDF CLOUDY    42  32  67 SE9       29.71S
LOUISVILLE/LOU CLOUDY    41  31  67 S9        29.72S
FORT KNOX      CLOUDY    39  32  76 S9        29.69F WCI  33
$$

KYZ035>037-039>044-047>052-055>060-089>105-251600-
NORTHEAST KENTUCKY

CITY           SKY/WX    TMP DP  RH WIND       PRES   REMARKS
LEXINGTON      CLOUDY    38  31  76 S12       29.74F WCI  30
COVINGTON      CLOUDY    39  31  72 S7        29.72S WCI  34
FRANKFORT      CLOUDY    38  31  76 S9        29.73S WCI  31
$$

KYZ054-064>069-076>088-106>120-251600-
SOUTHEAST KENTUCKY

CITY           SKY/WX    TMP DP  RH WIND       PRES   REMARKS
JACKSON        PTSUNNY   38  30  73 CALM      29.79R
LONDON         CLOUDY    40  29  64 S7        29.80S
SOMERSET       NOT AVBL
MIDDLESBORO    NOT AVBL
MONTICELLO     PTSUNNY   41  32  70 S12       29.82S
$$




USA.gov is the U.S. government's official web portal to all federal, state and local government web resources and services.